Regional Weather Roundup
Issued by NWS

Home | Current Version | Previous Version | Text Only | Print | Product List | Glossary On
Versions: 1 2 3 4 5 6 7 8 9 10 11 12 13 14 15 16 17 18 19 20 21 22 23 24 25 26 27 28
000
ASUS44 KBMX 291810
RWRAL

ALABAMA REGIONAL WEATHER ROUNDUP
NATIONAL WEATHER SERVICE BIRMINGHAM AL
100 PM CDT FRI APR 29 2016

NOTE: "FAIR" INDICATES FEW OR NO CLOUDS BELOW 12,000 FEET
WITH NO SIGNIFICANT WEATHER AND/OR OBSTRUCTIONS TO VISIBILITY.

THE REMARK "TC" DENOTES TEMPERATURE IN DEGREES CELSIUS.

ALZ001>011-014-016>018-020-291900-
NORTH ALABAMA

CITY           SKY/WX    TMP DP  RH WIND       PRES   REMARKS
MUSCLE SHOALS  CLOUDY    79  55  43 SE8       29.96F
6HR MIN TEMP:  59; 6HR MAX TEMP:  80;

HUNTSVILLE     CLOUDY    83  48  29 SE14      29.96F
6HR MIN TEMP:  61; 6HR MAX TEMP:  84;

DECATUR        CLOUDY    82  50  32 SE12      29.97F
6HR MIN TEMP:  57; 6HR MAX TEMP:  82;

HALEYVILLE     FAIR      79  59  50 VRB7      29.97F
6HR MIN TEMP:  58; 6HR MAX TEMP:  79;

GADSDEN        CLOUDY    83  57  41 VRB7      29.98F
6HR MIN TEMP:  55; 6HR MAX TEMP:  83;

$$

ALZ012-013-022-023-030>036-040>044-291900-
WEST CENTRAL ALABAMA

CITY           SKY/WX    TMP DP  RH WIND       PRES   REMARKS
TUSCALOOSA     CLOUDY    85  63  47 S14G22    29.92F
6HR MIN TEMP:  63; 6HR MAX TEMP:  85;

$$

ALZ015-024>027-033>036-040>044-291900-
CENTRAL ALABAMA

CITY           SKY/WX    TMP DP  RH WIND       PRES   REMARKS
BIRMINGHAM     CLOUDY    83  60  45 E10       29.97F
6HR MIN TEMP:  64; 6HR MAX TEMP:  84;

MONTGOMERY     SUNNY     86  66  51 SE8       29.95F
6HR MIN TEMP:  67; 6HR MAX TEMP:  86;

SHELBY CO ARPT CLOUDY    83  60  45 E8        29.95F
6HR MIN TEMP:  64; 6HR MAX TEMP:  85;

MAXWELL AFB    SUNNY     86  67  53 SE8       29.94F
6HR MIN TEMP:  66; 6HR MAX TEMP:  86;

GREENVILLE     FAIR      85  67  54 SE6       29.95F
6HR MIN TEMP:  64; 6HR MAX TEMP:  85;

$$

ALZ019-021-028-029-037-038-045>048-291900-
EAST CENTRAL ALABAMA

CITY           SKY/WX    TMP DP  RH WIND       PRES   REMARKS
ANNISTON       MOSUNNY   85  54  34 VRB3      29.98F
6HR MIN TEMP:  60; 6HR MAX TEMP:  85;

ALEXANDER CITY SUNNY     82  66  57 SE8       29.99F
6HR MIN TEMP:  60; 6HR MAX TEMP:  82;

AUBURN         SUNNY     83  62  49 VRB5      29.99F
6HR MIN TEMP:  67; 6HR MAX TEMP:  84;

$$

ALZ051>064-291900-
SOUTHWEST ALABAMA

CITY           SKY/WX    TMP DP  RH WIND       PRES   REMARKS
MOBILE         MOSUNNY   85  68  56 SE15G23   29.95F
6HR MIN TEMP:  67; 6HR MAX TEMP:  85;

BROOKLEY FIELD MOSUNNY   81  73  76 S10       29.96F
6HR MIN TEMP:  69; 6HR MAX TEMP:  82; 6HR PCP: TRACE;

EVERGREEN      MOSUNNY   86  67  52 S6        29.95F
6HR MIN TEMP:  65; 6HR MAX TEMP:  87;

$$

ALZ049-050-065>069-291900-
SOUTHEAST ALABAMA

CITY           SKY/WX    TMP DP  RH WIND       PRES   REMARKS
DOTHAN         PTSUNNY   86  65  49 CALM      30.00F
6HR MIN TEMP:  67; 6HR MAX TEMP:  87;

OZARK          PTSUNNY   84  69  60 VRB3      29.96F
6HR MIN TEMP:  66; 6HR MAX TEMP:  85;

TROY           MOSUNNY   85  66  53 S8        29.97F
6HR MIN TEMP:  65; 6HR MAX TEMP:  86;

EUFAULA        FAIR      89  63  41 VRB3      29.95F HX  90
6HR MIN TEMP:  68; 6HR MAX TEMP:  89;

$$




USA.gov is the U.S. government's official web portal to all federal, state and local government web resources and services.